Location: San Pelegr�n
(42.1868°N, 0.0079°E)
Time: 06:51:43
(UTC+00:00)

CSL-04 Rocket - Pass Details

Date: 24 January 2020
Orbit: 806 x 860 km, 99.0° (Epoch: 17 February)

Event Time Altitude Azimuth Distance (km) Brightness Sun altitude
Rises 18:43:05 0° 168° (SSE) 3,387 6.8 -18.4°
Reaches altitude 10° 18:45:26 10° 170° (S) 2,463 6.1 -18.8°
Maximum altitude 18:50:55 78° 257° (WSW) 878 3.8 -19.8°
Drops below altitude 10° 18:56:29 10° 343° (NNW) 2,502 6.3 -20.8°
Sets 18:58:53 0° 345° (NNW) 3,445 7.0 -21.3°
